[[{"header":{"parameterUnit":"m.s-1","parameterCategory":1,"la1":30.2991,"la2":30.254,"lo1":-89.0895,"lo2":-89.0444,"dy":0.0017,"dx":0.0017,"nx":28,"ny":28,"refTime":"2024-07-03T09:00:00:Z","depth":0,"parameterNumber":2,"parameterNumberName":"U-component_of_WINDS"},"data":[0,0,0,0,0,0,0,0,0,0,0,0,0,0,0,0,0,0,0,0,0,0,0,0,0,0,0,0,0,0,0,0,0,0,0,0,0,0,0,0,0,0,0,0,0,0,0,0,0,0,0,0,0,0,0,0,0,0,1.8604,1.8604,0,1.8602,1.8602,1.8602,1.8512,1.851,1.8507,1.8505,1.8508,1.851,1.8512,0,0,0,0,0,0,0,0,0,0,0,0,0,1.8533,1.8534,1.8604,1.8604,1.8604,1.8602,1.8602,1.8602,1.8512,1.8509,1.8507,1.8504,1.8507,1.8509,1.8512,0,0,0,0,0,0,0,0,0,0,0,0,0,1.8551,1.8535,1.8604,1.8559,1.8555,1.8602,1.8602,1.8602,1.8513,1.8509,1.8506,1.8503,1.8506,1.8509,1.8513,1.8604,0,0,1.8523,1.8524,0,0,0,0,0,0,0,0,1.855,1.8553,1.8566,1.8562,1.8558,1.8553,1.8578,1.8603,1.8514,1.8529,1.8505,1.8501,1.8526,1.8528,1.8535,1.8604,1.8605,1.8523,1.8525,1.8527,1.8528,0,0,0,0,0,0,0,1.8549,1.8553,1.8603,1.8566,1.8561,1.8539,1.8538,1.8582,1.8548,1.8527,1.8521,1.8522,1.8523,1.8532,1.8534,1.8605,1.8523,1.8526,1.8528,1.853,1.8745,1.8749,0,0,0,0,0,0,1.8553,1.8553,1.8604,1.8603,1.8545,1.8544,1.8542,1.8559,1.8547,1.8541,1.8525,1.8517,1.8528,1.8531,1.8534,1.8638,1.8527,1.853,1.8532,1.8742,1.8746,1.875,0,0,0,0,0,0,1.8552,1.8558,1.8604,1.8576,1.858,1.8549,1.8568,1.856,1.8569,1.8545,1.8538,1.854,1.8525,1.8529,1.8586,1.8637,1.8531,1.8535,1.8737,1.8743,1.8748,1.8849,0,0,0,0,0,0,1.855,1.8559,1.8593,1.8577,1.8582,1.8656,1.8571,1.8563,1.8575,1.8565,1.8557,1.8553,1.8523,1.8582,1.859,1.864,1.8537,1.8733,1.874,1.8746,1.8841,1.8857,1.8871,0,0,0,0,0,1.8548,1.8623,1.8595,1.8602,1.8624,1.8659,1.8661,1.8624,1.8579,1.8613,1.8597,1.8553,1.863,1.8588,1.8597,1.8649,1.8729,1.8738,1.8746,1.8834,1.8854,1.8871,0,0,0,0,0,0,1.8648,1.862,1.8589,1.8661,1.8663,1.8643,1.8685,1.8647,1.8663,1.8653,1.8608,1.8607,1.8671,1.8666,1.8619,1.8735,1.8672,1.8682,1.8736,1.8755,1.8769,1.8769,1.854,0,0,0,0,0,1.8678,1.8707,1.8682,1.8748,1.875,1.8718,1.8732,1.8703,1.8703,1.8704,1.8692,1.8695,1.8719,1.8737,1.8759,1.8839,1.8835,1.8879,1.8894,1.8907,1.8916,1.8956,1.8974,1.8778,1.8777,1.8777,0,0,1.8741,1.873,1.8752,1.8768,1.8766,1.8797,1.8719,1.8757,1.878,1.871,1.8762,1.8753,1.8753,1.8822,1.8852,1.882,1.8969,1.8917,1.8927,1.893,1.8966,1.8985,1.9001,1.8783,1.8782,1.8781,0,0,1.8872,1.8867,1.8919,1.8918,1.8914,1.8891,1.8904,1.889,1.8881,1.8932,1.8879,1.8906,1.895,1.8952,1.8958,1.9086,1.9045,1.9094,1.9173,1.9212,1.9228,1.9241,1.9285,1.9301,1.9104,1.9104,1.9104,0,1.8951,1.8995,1.8952,1.8992,1.9,1.8935,1.8988,1.8989,1.8994,1.9001,1.8965,1.9016,1.9012,1.9079,1.9109,1.9118,1.913,1.9095,1.9229,1.9242,1.9254,1.9295,1.9312,1.911,1.9109,1.9109,1.9108,0,1.9092,1.9123,1.9166,1.9169,1.9182,1.9229,1.9192,1.9211,1.918,1.9162,1.9213,1.9206,1.9223,1.9237,1.9209,1.9299,1.9279,1.9237,1.9172,1.9279,1.9317,1.9332,1.9118,1.9116,1.9115,1.9113,0,0,1.9286,1.9262,1.9278,1.9277,1.9267,1.9291,1.9334,1.9349,1.9365,1.937,1.9404,1.9441,1.9401,1.9408,1.9379,1.9414,1.9513,1.9367,1.9366,1.9393,1.9609,1.964,1.9659,1.9486,1.9488,1.9491,1.9608,0,1.9411,1.948,1.9441,1.9517,1.9544,1.9482,1.9519,1.9518,1.9501,1.9522,1.9504,1.953,1.9476,1.948,1.9511,1.9494,1.9555,1.9485,1.9517,1.9518,1.9517,1.9678,1.9712,1.9823,1.9623,1.9625,1.9627,0,1.9565,1.9573,1.9651,1.9632,1.9642,1.9676,1.9685,1.9706,1.9702,1.9687,1.9694,1.9656,1.9697,1.9633,1.9688,1.9641,1.9651,1.9645,1.9648,1.9649,1.9578,1.9682,1.9858,1.9874,1.965,1.9648,1.9647,0,1.9696,1.9727,1.9776,1.9778,1.9758,1.9783,1.9776,1.9769,1.9779,1.9787,1.9793,1.9807,1.9815,1.9827,1.9793,1.975,1.9852,1.9786,1.984,1.9841,1.9864,1.9863,2.0042,1.9873,1.9873,1.9873,1.9873,0,1.9838,1.9888,1.9834,1.9865,1.9918,1.9873,1.9927,1.9914,1.9907,1.9933,1.9882,1.9909,1.9863,1.9885,1.986,1.9907,1.9912,1.9901,1.9893,1.9905,1.9906,1.991,1.9901,1.9877,1.9876,1.9875,1.9875,0,1.9994,1.996,2.001,1.9986,1.9981,2.0021,2.0001,2.0028,2.0006,2.0041,2.0046,2.0014,2.0036,2.0004,2.0025,2.0007,2.0072,2.0054,2.0073,2.0067,2.0122,2.0117,2.031,2.0332,2.0151,2.0152,2.0154,0,2.0086,2.0122,2.0101,2.0114,2.0109,2.0131,2.014,2.0097,2.0109,2.0105,2.0133,2.0151,2.0163,2.0202,2.0181,2.0195,2.0176,2.0242,2.0178,2.0187,2.0175,2.0172,2.0175,2.0256,2.0258,2.026,2.0261,0,2.0252,2.0233,2.0247,2.0255,2.0267,2.0272,2.0273,2.0287,2.0241,2.0257,2.0278,2.0287,2.0306,2.0324,2.0333,2.0327,2.0286,2.0281,2.0294,2.0306,2.0314,2.0308,2.0107,2.0277,2.0276,2.0274,2.0274,2.0273,2.0377,2.0405,2.0393,2.041,2.0406,2.0407,2.043,2.0411,2.0427,2.0437,2.0411,2.0438,2.0431,2.0438,2.0436,2.0457,2.0428,2.0448,2.0452,2.0457,2.0465,2.0312,2.0459,2.0458,2.0458,2.0458,2.0457,0,2.0539,2.0527,2.0543,2.0544,2.0558,2.0516,2.0515,2.0529,2.0553,2.0549,2.056,2.0584,2.06,2.0579,2.0592,2.0613,2.0594,2.0618,2.0615,2.0614,2.0491,2.0477,2.0632,2.0632,2.0632,2.0632,2.0632,2.0632,2.0624,2.0668,2.0647,2.0687,2.0676,2.07,2.0702,2.0703,2.0699,2.0727,2.074,2.0725,2.0714,2.0725,2.0738,2.0732,2.0738,2.0768,2.0754,2.064,2.0623,2.0606,2.0593,2.077,2.077,2.0875,2.0876,2.0877]},{"header":{"parameterUnit":"m.s-1","parameterCategory":1,"la1":30.2991,"la2":30.254,"lo1":-89.0895,"lo2":-89.0444,"dy":0.0017,"dx":0.0017,"nx":28,"ny":28,"refTime":"2024-07-03T09:00:00:Z","depth":0,"parameterNumber":3,"parameterNumberName":"V-component_of_WINDS"},"data":[0,0,0,0,0,0,0,0,0,0,0,0,0,0,0,0,0,0,0,0,0,0,0,0,0,0,0,0,0,0,0,0,0,0,0,0,0,0,0,0,0,0,0,0,0,0,0,0,0,0,0,0,0,0,0,0,0,0,4.5108,4.5109,0,4.5182,4.5183,4.5184,4.5156,4.5154,4.5152,4.5151,4.5221,4.5225,4.5228,0,0,0,0,0,0,0,0,0,0,0,0,0,4.4936,4.4939,4.5108,4.5109,4.511,4.5182,4.5183,4.5184,4.5156,4.5154,4.5152,4.515,4.522,4.5224,4.5228,0,0,0,0,0,0,0,0,0,0,0,0,0,4.501,4.494,4.5107,4.5105,4.5105,4.5182,4.5183,4.5184,4.5156,4.5154,4.5151,4.5149,4.5219,4.5224,4.5229,4.5311,0,0,4.5245,4.5247,0,0,0,0,0,0,0,0,4.5006,4.5016,4.5104,4.5105,4.5106,4.5157,4.5148,4.5226,4.5157,4.5137,4.5151,4.5148,4.5202,4.5208,4.5227,4.5315,4.5318,4.5245,4.5248,4.5251,4.5252,0,0,0,0,0,0,0,4.5001,4.5013,4.5137,4.5105,4.5106,4.5097,4.5105,4.5163,4.5182,4.5138,4.5137,4.5146,4.5202,4.5222,4.5229,4.5319,4.5245,4.525,4.5253,4.5255,4.5474,4.5476,0,0,0,0,0,0,4.4996,4.5009,4.5134,4.5139,4.5049,4.5103,4.5111,4.5143,4.5182,4.5185,4.5148,4.5144,4.5215,4.5223,4.5231,4.5328,4.5251,4.5255,4.5258,4.5471,4.5474,4.5477,0,0,0,0,0,0,4.4992,4.5008,4.5131,4.5074,4.5089,4.5108,4.5144,4.5146,4.5167,4.5189,4.5192,4.5166,4.5213,4.5224,4.5291,4.533,4.5258,4.5262,4.5468,4.5472,4.5476,4.5523,0,0,0,0,0,0,4.4988,4.5006,4.5039,4.5075,4.5092,4.5192,4.5147,4.5149,4.5176,4.5172,4.5207,4.521,4.5212,4.5284,4.5296,4.5336,4.5267,4.5464,4.547,4.5475,4.5518,4.5528,4.5537,0,0,0,0,0,4.4982,4.5049,4.5041,4.5057,4.5134,4.5195,4.5204,4.5207,4.518,4.5212,4.5226,4.5209,4.5324,4.5291,4.5305,4.5346,4.5462,4.5468,4.5474,4.5514,4.5526,4.5537,0,0,0,0,0,0,4.5017,4.5054,4.5045,4.5127,4.5158,4.519,4.5231,4.522,4.5259,4.5253,4.5253,4.5261,4.533,4.5345,4.5307,4.5426,4.5389,4.5398,4.5414,4.5426,4.5435,4.5429,4.5271,0,0,0,0,0,4.5034,4.5083,4.5112,4.518,4.5197,4.5211,4.5238,4.5237,4.5268,4.5281,4.53,4.533,4.5372,4.54,4.5441,4.5521,4.5526,4.5556,4.5565,4.5573,4.558,4.5621,4.5634,4.5497,4.5497,4.5497,0,0,4.507,4.5096,4.5127,4.5188,4.5212,4.526,4.5222,4.5275,4.5309,4.5288,4.5353,4.5368,4.5401,4.5474,4.5507,4.5489,4.5619,4.5581,4.5587,4.559,4.5628,4.5641,4.5653,4.5502,4.5501,4.55,0,0,4.516,4.5186,4.5245,4.527,4.5307,4.5316,4.533,4.5364,4.5373,4.5439,4.5423,4.5463,4.5538,4.5561,4.5582,4.568,4.5664,4.5693,4.5741,4.5781,4.5791,4.5801,4.5833,4.5845,4.57,4.5701,4.5701,0,4.5199,4.5272,4.5276,4.533,4.5356,4.5341,4.5399,4.5422,4.547,4.5488,4.5467,4.5558,4.558,4.5657,4.5681,4.57,4.5713,4.5688,4.579,4.58,4.5808,4.5839,4.5851,4.5704,4.5703,4.5703,4.5703,0,4.5317,4.5368,4.5411,4.5459,4.549,4.5546,4.5556,4.5586,4.5583,4.5593,4.5658,4.5683,4.5728,4.5746,4.5743,4.5823,4.581,4.579,4.5751,4.5824,4.5853,4.5865,4.5708,4.5707,4.5706,4.5705,0,0,4.543,4.548,4.5495,4.5516,4.5555,4.5593,4.5647,4.5692,4.5717,4.5751,4.5794,4.5856,4.5838,4.5862,4.5861,4.5897,4.5969,4.5872,4.5872,4.5887,4.6055,4.6068,4.6082,4.596,4.5962,4.5964,4.6051,0,4.5521,4.5618,4.5622,4.5708,4.5753,4.5739,4.5786,4.5814,4.5825,4.5863,4.5874,4.5918,4.5891,4.5906,4.594,4.5953,4.6002,4.5947,4.5997,4.5999,4.5987,4.6097,4.6112,4.6193,4.6063,4.6064,4.6066,0,4.564,4.5678,4.5769,4.5801,4.582,4.5862,4.5902,4.594,4.597,4.5975,4.6003,4.5996,4.6049,4.601,4.6081,4.6043,4.6064,4.6073,4.6076,4.6079,4.6035,4.61,4.6219,4.623,4.6084,4.6083,4.6081,0,4.571,4.5784,4.5848,4.5866,4.5905,4.5934,4.5952,4.598,4.6006,4.6041,4.6057,4.6097,4.6118,4.6148,4.6152,4.6124,4.6222,4.6184,4.6225,4.6225,4.6245,4.6243,4.6366,4.6263,4.6263,4.6262,4.6262,0,4.581,4.5865,4.588,4.5918,4.598,4.5983,4.6043,4.6058,4.6083,4.6122,4.6113,4.615,4.6154,4.6191,4.6194,4.6251,4.6261,4.6265,4.6264,4.6264,4.6263,4.6276,4.627,4.6266,4.6265,4.6264,4.6264,0,4.5898,4.591,4.5978,4.6009,4.6018,4.6062,4.6087,4.6123,4.6133,4.6183,4.6195,4.621,4.6254,4.6261,4.6312,4.6314,4.6381,4.6376,4.6371,4.6369,4.6409,4.6404,4.6543,4.656,4.6447,4.6449,4.6449,0,4.5959,4.6002,4.6038,4.6065,4.6084,4.6127,4.6153,4.6158,4.6185,4.6223,4.6253,4.6296,4.6331,4.64,4.6414,4.6453,4.6447,4.6493,4.6453,4.6451,4.6445,4.6441,4.6444,4.65,4.6501,4.6502,4.6503,0,4.6067,4.607,4.611,4.6151,4.6184,4.6216,4.6247,4.6269,4.6277,4.6308,4.6353,4.638,4.6432,4.6473,4.6512,4.6527,4.6515,4.6516,4.6527,4.6526,4.652,4.6522,4.6389,4.6512,4.6511,4.6511,4.651,4.651,4.6142,4.6178,4.6209,4.6252,4.6276,4.6305,4.6339,4.6354,4.6392,4.6436,4.6436,4.6485,4.6512,4.6562,4.658,4.6616,4.6601,4.6618,4.6622,4.6625,4.6628,4.6517,4.6623,4.6623,4.6623,4.6623,4.6623,0,4.6246,4.6265,4.6306,4.6349,4.6383,4.6372,4.6404,4.6433,4.6476,4.6503,4.6538,4.6588,4.6628,4.6645,4.6684,4.671,4.6706,4.672,4.6717,4.672,4.664,4.6626,4.6722,4.6722,4.6722,4.6722,4.6722,4.6722,4.6304,4.6364,4.6371,4.6442,4.646,4.6509,4.6528,4.6554,4.6575,4.6633,4.6666,4.6678,4.67,4.6741,4.6776,4.678,4.6793,4.681,4.6811,4.6736,4.6726,4.6716,4.6702,4.6813,4.6813,4.6887,4.6888,4.6888]}]]